Location: Oberwangen
(47.4286°N, 8.9679°E)
Time: 02:38:38
(UTC+00:00)

Cosmos 2233 Rocket - Pass Details

Date: 20 June 2021
Orbit: 953 x 990 km, 82.9° (Epoch: 26 July)

Event Time Altitude Azimuth Distance (km) Brightness Sun altitude
Rises 21:32:29 0° 349° (N) 3,645 8.6 -14.7°
Reaches altitude 10° 21:34:59 10° 348° (NNW) 2,697 7.6 -14.9°
Maximum altitude 21:41:08 76° 264° (W) 994 4.1 -15.3°
Enters shadow 21:45:39 19° 182° (S) 2,096 5.2 -15.6°
